Location: Azul
(36.7830°S, 59.8500°W)
Time: 23:48:40
(UTC-03:00)

NOAA 15 - Pass Details

Date: 31 October 2021
Orbit: 797 x 813 km, 98.7° (Epoch: 30 November)

Event Time Altitude Azimuth Distance (km) Brightness Sun altitude
Rises 21:45:57 0° 181° (S) 3,345 8.4 -24.0°
Reaches altitude 10° 21:48:41 10° 194° (SSW) 2,409 7.8 -24.4°
Maximum altitude 21:52:54 25° 246° (WSW) 1,606 6.8 -25.0°
Drops below altitude 10° 21:57:07 10° 299° (WNW) 2,394 7.2 -25.6°
Sets 21:59:49 0° 312° (NW) 3,320 7.8 -26.0°
